[[{"header":{"parameterUnit":"m.s-1","parameterCategory":1,"la1":30.2991,"la2":30.254,"lo1":-89.0895,"lo2":-89.0444,"dy":0.0017,"dx":0.0017,"nx":28,"ny":28,"refTime":"2023-08-06T03:00:00:Z","depth":0,"parameterNumber":2,"parameterNumberName":"U-component_of_WINDS"},"data":[0,0,0,0,0,0,0,0,0,0,0,0,0,0,0,0,0,0,0,0,0,0,0,0,0,0,0,0,0,0,0,0,0,0,0,0,0,0,0,0,0,0,0,0,0,0,0,0,0,0,0,0,0,0,0,0,0,0,5.5583,5.5585,0,5.5745,5.5747,5.5749,5.5687,5.5684,5.568,5.5676,5.5844,5.5852,5.586,0,0,0,0,0,0,0,0,0,0,0,0,0,5.5219,5.5226,5.5583,5.5585,5.5587,5.5745,5.5747,5.5749,5.5688,5.5683,5.5679,5.5675,5.5841,5.5851,5.586,0,0,0,0,0,0,0,0,0,0,0,0,0,5.5379,5.5228,5.5582,5.5575,5.5576,5.5744,5.5747,5.575,5.5689,5.5683,5.5678,5.5673,5.5838,5.585,5.5862,5.6047,0,0,5.5898,5.5903,0,0,0,0,0,0,0,0,5.537,5.5392,5.5574,5.5576,5.5577,5.569,5.568,5.5849,5.569,5.5646,5.5676,5.567,5.5797,5.5812,5.5855,5.6055,5.6062,5.5899,5.5906,5.5911,5.5915,0,0,0,0,0,0,0,5.5359,5.5385,5.5647,5.5577,5.5579,5.5564,5.558,5.5712,5.5751,5.565,5.5646,5.5665,5.5797,5.5844,5.5859,5.6064,5.5899,5.5909,5.5917,5.5921,5.642,5.6426,0,0,0,0,0,0,5.5347,5.5376,5.5642,5.5652,5.5458,5.5575,5.5593,5.566,5.575,5.5758,5.567,5.5662,5.5826,5.5845,5.5864,5.6084,5.5911,5.5922,5.5929,5.6414,5.6422,5.6428,0,0,0,0,0,0,5.534,5.5371,5.5635,5.5513,5.5545,5.5587,5.5662,5.5666,5.5712,5.5765,5.5772,5.571,5.5823,5.5848,5.6001,5.6089,5.5928,5.5939,5.6407,5.6417,5.6425,5.6527,0,0,0,0,0,0,5.5329,5.5369,5.544,5.5515,5.5552,5.577,5.5668,5.5673,5.5733,5.5724,5.5805,5.5813,5.582,5.5984,5.6013,5.6103,5.5948,5.6399,5.6411,5.6422,5.6516,5.6539,5.6558,0,0,0,0,0,5.5317,5.5464,5.5444,5.5477,5.5642,5.5775,5.5796,5.5801,5.574,5.5811,5.5845,5.581,5.6075,5.6,5.6032,5.6127,5.6394,5.6408,5.6421,5.6507,5.6535,5.6558,0,0,0,0,0,0,5.54,5.5473,5.5453,5.5628,5.5696,5.5764,5.5855,5.5831,5.5917,5.5905,5.5908,5.5927,5.6085,5.6122,5.6036,5.6309,5.6225,5.6246,5.6279,5.6306,5.6327,5.6314,5.5958,0,0,0,0,0,5.5438,5.554,5.5599,5.5749,5.5783,5.5813,5.5872,5.5869,5.5939,5.5968,5.6013,5.6082,5.618,5.6246,5.634,5.6522,5.6537,5.6603,5.6624,5.6641,5.6658,5.6754,5.6783,5.6474,5.6473,5.6473,0,0,5.5519,5.5572,5.5637,5.5766,5.5818,5.5923,5.5838,5.5953,5.603,5.5986,5.6132,5.6168,5.6245,5.6413,5.6489,5.6448,5.6747,5.6658,5.6671,5.668,5.6771,5.68,5.6826,5.6483,5.6481,5.648,0,0,5.572,5.5771,5.5899,5.5953,5.6032,5.605,5.6081,5.6153,5.6174,5.6322,5.6289,5.6381,5.6552,5.6607,5.6658,5.6877,5.6847,5.6908,5.7017,5.711,5.7135,5.7156,5.7231,5.7259,5.6925,5.6926,5.6926,0,5.581,5.5967,5.5969,5.6086,5.6142,5.6106,5.6235,5.6286,5.6393,5.6433,5.6386,5.6596,5.6647,5.6825,5.6878,5.6921,5.6955,5.6898,5.7131,5.7153,5.7173,5.7244,5.7273,5.6932,5.6931,5.6931,5.693,0,5.6073,5.6182,5.6276,5.6377,5.6445,5.6568,5.6587,5.6656,5.6647,5.6671,5.6819,5.6878,5.6981,5.7024,5.7018,5.7201,5.7173,5.7129,5.7044,5.7209,5.7276,5.7304,5.6942,5.6939,5.6937,5.6936,0,0,5.6331,5.643,5.6464,5.6508,5.6592,5.6676,5.6796,5.6896,5.6953,5.7028,5.7127,5.7271,5.7229,5.7287,5.7286,5.7369,5.7535,5.7314,5.7316,5.7351,5.7737,5.7768,5.78,5.7516,5.7521,5.7525,5.7729,0,5.6536,5.6746,5.675,5.6942,5.7041,5.7006,5.711,5.7172,5.7197,5.7284,5.7312,5.7412,5.7352,5.7385,5.7465,5.7497,5.7612,5.7483,5.7607,5.7611,5.7586,5.7835,5.787,5.8059,5.7756,5.776,5.7764,0,5.6803,5.6883,5.7085,5.7151,5.7193,5.7287,5.7377,5.7461,5.753,5.7542,5.7605,5.7592,5.7713,5.7625,5.7791,5.7703,5.7754,5.7777,5.7785,5.7795,5.7696,5.785,5.812,5.8147,5.7806,5.7802,5.7799,0,5.6967,5.7127,5.7267,5.7306,5.7388,5.7454,5.7491,5.7554,5.7613,5.7692,5.773,5.7823,5.7874,5.7946,5.7957,5.7892,5.8122,5.8037,5.8134,5.8134,5.8183,5.8179,5.8462,5.822,5.822,5.8219,5.8218,0,5.7195,5.7319,5.7341,5.7427,5.7564,5.7568,5.7703,5.7735,5.7791,5.7882,5.7859,5.7945,5.7956,5.8044,5.8054,5.8188,5.8212,5.8224,5.8224,5.8225,5.8223,5.8257,5.8243,5.8227,5.8225,5.8223,5.8222,0,5.7401,5.7421,5.7571,5.7635,5.7654,5.7752,5.7807,5.7888,5.791,5.8025,5.8052,5.8086,5.8189,5.8207,5.8329,5.8335,5.8494,5.8483,5.8471,5.8469,5.8564,5.8554,5.8877,5.8918,5.8651,5.8654,5.8656,0,5.7544,5.7638,5.7711,5.7769,5.7809,5.7905,5.7964,5.797,5.8033,5.8117,5.8188,5.8288,5.8368,5.8533,5.8568,5.866,5.865,5.8757,5.8663,5.8659,5.8648,5.8641,5.8649,5.8774,5.8777,5.8779,5.8781,0,5.7794,5.7798,5.7884,5.7973,5.8044,5.8115,5.8182,5.8231,5.8246,5.8318,5.8421,5.8483,5.8606,5.8704,5.8796,5.8833,5.881,5.881,5.8837,5.8837,5.8825,5.883,5.8517,5.8802,5.88,5.8799,5.8798,5.8797,5.7971,5.8051,5.8115,5.821,5.8261,5.8323,5.8402,5.8432,5.8519,5.8618,5.8617,5.873,5.8794,5.8914,5.8957,5.9045,5.9011,5.9051,5.906,5.9069,5.9077,5.8812,5.9062,5.9061,5.9061,5.906,5.906,0,5.8217,5.8255,5.8343,5.8436,5.8511,5.8482,5.8553,5.8618,5.8717,5.8779,5.8857,5.8975,5.9069,5.9111,5.9204,5.9267,5.9258,5.9291,5.9285,5.9293,5.9104,5.907,5.9296,5.9296,5.9296,5.9296,5.9296,5.9296,5.8354,5.8488,5.8499,5.8657,5.8695,5.8804,5.8847,5.8904,5.8953,5.9085,5.9163,5.9189,5.9242,5.9338,5.9423,5.9433,5.9467,5.9505,5.951,5.9331,5.9307,5.9284,5.9252,5.9513,5.9513,5.9691,5.9693,5.9694]},{"header":{"parameterUnit":"m.s-1","parameterCategory":1,"la1":30.2991,"la2":30.254,"lo1":-89.0895,"lo2":-89.0444,"dy":0.0017,"dx":0.0017,"nx":28,"ny":28,"refTime":"2023-08-06T03:00:00:Z","depth":0,"parameterNumber":3,"parameterNumberName":"V-component_of_WINDS"},"data":[0,0,0,0,0,0,0,0,0,0,0,0,0,0,0,0,0,0,0,0,0,0,0,0,0,0,0,0,0,0,0,0,0,0,0,0,0,0,0,0,0,0,0,0,0,0,0,0,0,0,0,0,0,0,0,0,0,0,2.1466,2.1467,0,2.1565,2.1566,2.1567,2.1567,2.1566,2.1564,2.1563,2.1661,2.1665,2.1669,0,0,0,0,0,0,0,0,0,0,0,0,0,2.1271,2.1274,2.1466,2.1467,2.1468,2.1565,2.1566,2.1568,2.1567,2.1566,2.1564,2.1563,2.166,2.1665,2.1669,0,0,0,0,0,0,0,0,0,0,0,0,0,2.1361,2.1276,2.1465,2.148,2.1482,2.1565,2.1566,2.1568,2.1568,2.1566,2.1564,2.1562,2.1659,2.1664,2.167,2.1744,0,0,2.1687,2.169,0,0,0,0,0,0,0,0,2.1356,2.1368,2.1476,2.1479,2.1482,2.1552,2.1534,2.1627,2.1568,2.1535,2.1563,2.1561,2.1626,2.1634,2.1657,2.1748,2.1753,2.1688,2.1691,2.1694,2.1695,0,0,0,0,0,0,0,2.135,2.1364,2.1505,2.1478,2.1481,2.148,2.149,2.1551,2.159,2.1538,2.1538,2.155,2.1627,2.1652,2.166,2.1754,2.1688,2.1693,2.1696,2.1698,2.1908,2.191,0,0,0,0,0,0,2.1341,2.1359,2.1502,2.1508,2.1413,2.1485,2.1497,2.1531,2.1589,2.1597,2.1551,2.155,2.1643,2.1653,2.1663,2.1752,2.1694,2.1699,2.1702,2.1906,2.1908,2.1911,0,0,0,0,0,0,2.1337,2.1354,2.1498,2.1434,2.1452,2.149,2.1529,2.1534,2.1559,2.16,2.1606,2.157,2.1642,2.1655,2.1723,2.1756,2.1702,2.1707,2.1903,2.1907,2.191,2.1932,0,0,0,0,0,0,2.1332,2.1353,2.1382,2.1434,2.1455,2.1558,2.1531,2.1537,2.1569,2.1567,2.1619,2.1625,2.1641,2.1715,2.1729,2.1763,2.1711,2.1901,2.1905,2.1909,2.1928,2.1935,2.1941,0,0,0,0,0,2.1325,2.1384,2.1384,2.1401,2.1494,2.156,2.1572,2.159,2.1572,2.1601,2.1627,2.1624,2.175,2.1722,2.1738,2.1774,2.1899,2.1904,2.1908,2.1926,2.1934,2.1941,0,0,0,0,0,0,2.1335,2.1392,2.1392,2.1471,2.1511,2.156,2.1598,2.1599,2.1644,2.1641,2.166,2.1672,2.174,2.1763,2.1731,2.1847,2.1822,2.183,2.1829,2.1838,2.1844,2.1837,2.1716,0,0,0,0,0,2.1346,2.1397,2.1443,2.1508,2.1528,2.156,2.1589,2.16,2.1641,2.1658,2.1689,2.1729,2.1777,2.1809,2.1855,2.1931,2.1941,2.1963,2.197,2.1975,2.1982,2.2022,2.2032,2.1927,2.1926,2.1926,0,0,2.1371,2.1408,2.1439,2.1511,2.1543,2.1594,2.1574,2.1629,2.1666,2.1666,2.1733,2.1757,2.1802,2.1874,2.1907,2.1896,2.2013,2.1981,2.1985,2.1989,2.2028,2.2038,2.2047,2.193,2.1929,2.1929,0,0,2.144,2.1474,2.1532,2.1564,2.1613,2.1633,2.1647,2.1696,2.1712,2.1779,2.178,2.1823,2.1907,2.1938,2.1965,2.2044,2.2042,2.2059,2.2093,2.2132,2.214,2.2148,2.2175,2.2184,2.2066,2.2066,2.2066,0,2.1464,2.1542,2.156,2.1615,2.1646,2.1649,2.1706,2.1736,2.1798,2.1818,2.1804,2.1908,2.1938,2.2017,2.2036,2.2058,2.2073,2.2054,2.2138,2.2145,2.2152,2.2179,2.2189,2.2067,2.2067,2.2067,2.2067,0,2.1568,2.1621,2.1661,2.1721,2.1756,2.1812,2.1837,2.187,2.1877,2.1897,2.1964,2.2001,2.2054,2.2074,2.2081,2.2153,2.2144,2.2134,2.2109,2.2164,2.2189,2.2199,2.207,2.2069,2.2069,2.2068,0,0,2.1649,2.1717,2.1731,2.1758,2.1811,2.1852,2.1906,2.1959,2.1987,2.2028,2.2073,2.2142,2.2133,2.2163,2.2173,2.2207,2.2266,2.2193,2.2194,2.2204,2.2346,2.2353,2.2365,2.2265,2.2267,2.2268,2.2342,0,2.1724,2.1822,2.1839,2.1925,2.1973,2.1975,2.2022,2.2059,2.2079,2.2122,2.2143,2.2192,2.2176,2.2194,2.2228,2.2252,2.2295,2.2247,2.2305,2.2307,2.2294,2.2378,2.2387,2.2455,2.2352,2.2354,2.2355,0,2.1826,2.187,2.196,2.2006,2.2026,2.2069,2.2118,2.2159,2.2199,2.2211,2.2245,2.225,2.2304,2.2276,2.235,2.2317,2.2342,2.2357,2.236,2.2366,2.2334,2.2386,2.2477,2.2487,2.237,2.2369,2.2368,0,2.1874,2.1957,2.2021,2.2044,2.2098,2.2128,2.2151,2.219,2.222,2.2262,2.2281,2.2329,2.2355,2.239,2.2407,2.2386,2.248,2.2454,2.249,2.2489,2.251,2.2509,2.2606,2.2526,2.2526,2.2526,2.2525,0,2.1957,2.2012,2.2044,2.2083,2.2144,2.2162,2.2221,2.2244,2.2278,2.232,2.2324,2.2364,2.2384,2.2426,2.2439,2.2498,2.2509,2.2519,2.2522,2.2519,2.2518,2.2536,2.2531,2.2528,2.2528,2.2527,2.2527,0,2.2022,2.2046,2.2116,2.2162,2.2174,2.2217,2.2255,2.2292,2.2311,2.2365,2.2378,2.2408,2.2457,2.2478,2.2538,2.2547,2.2613,2.2613,2.26,2.2601,2.2636,2.2632,2.2748,2.2764,2.2674,2.2675,2.2675,0,2.2074,2.2116,2.2166,2.2195,2.222,2.2267,2.2297,2.2315,2.2347,2.2395,2.2426,2.2475,2.2516,2.2594,2.262,2.2665,2.2666,2.2703,2.2673,2.2667,2.2665,2.2663,2.2666,2.2709,2.271,2.271,2.2711,0,2.2161,2.217,2.2215,2.2264,2.23,2.2339,2.2377,2.24,2.2424,2.2458,2.2509,2.2541,2.2602,2.265,2.2697,2.2719,2.2718,2.272,2.2731,2.2728,2.2719,2.2723,2.2615,2.2718,2.2717,2.2716,2.2716,2.2716,2.2221,2.2258,2.2298,2.2347,2.2378,2.2412,2.2449,2.2473,2.2516,2.2568,2.2575,2.2629,2.2666,2.2729,2.2753,2.2794,2.2784,2.28,2.2804,2.2807,2.2809,2.2712,2.2802,2.2802,2.2802,2.2802,2.2802,0,2.2308,2.2334,2.2379,2.2432,2.247,2.2466,2.2507,2.2539,2.2587,2.2622,2.2661,2.2718,2.2765,2.2794,2.284,2.2867,2.2868,2.2878,2.2876,2.2881,2.2816,2.2802,2.2877,2.2877,2.2877,2.2877,2.2877,2.2877,2.2358,2.242,2.2434,2.251,2.2535,2.2589,2.2612,2.2643,2.2671,2.2735,2.2774,2.2793,2.2825,2.2873,2.2914,2.2922,2.2938,2.2949,2.2956,2.2894,2.2886,2.2879,2.2866,2.2953,2.2953,2.3018,2.3018,2.3019]}]]